When you browse on this site, cookies collect data to enhance your experience and personalize the content and advertising you see.
Visit our Privacy Policy to learn more. By continuing to use the site, you agree to this use of cookies and data.

Tiempo cada hora Bandar Seri Begawan

Hoy, 11 Julio, Sábado

Tiempo Temperatura Precipitaciones Viento Presión Humedad
00:00 +26°C° 1.8 mm 1 mps 756 mmHg 96%
01:00 +26°C° 1.8 mm 1 mps 755 mmHg 96%
02:00 +26°C° 0 mm 2 mps 755 mmHg 96%
03:00 +25°C° 0.9 mm 2 mps 755 mmHg 96%
04:00 +25°C° 0.9 mm 2 mps 755 mmHg 96%
05:00 +25°C° 0.9 mm 2 mps 755 mmHg 96%
06:00 +25°C° 0.8 mm 2 mps 755 mmHg 95%
07:00 +26°C° 0.8 mm 2 mps 756 mmHg 95%
08:00 +26°C° 0 mm 1 mps 756 mmHg 94%
09:00 +27°C° 0.3 mm 1 mps 756 mmHg 91%
10:00 +28°C° 0.3 mm 1 mps 756 mmHg 88%
11:00 +29°C° 0.3 mm 2 mps 756 mmHg 85%
12:00 +29°C° 0.3 mm 2 mps 755 mmHg 84%
13:00 +29°C° 0.3 mm 2 mps 755 mmHg 82%
14:00 +30°C° 0.3 mm 2 mps 755 mmHg 81%
15:00 +29°C° 0.1 mm 2 mps 754 mmHg 81%
16:00 +29°C° 0.1 mm 2 mps 754 mmHg 82%
17:00 +28°C° 0.1 mm 2 mps 754 mmHg 82%
18:00 +28°C° 0.1 mm 2 mps 754 mmHg 84%
19:00 +27°C° 0.1 mm 2 mps 755 mmHg 86%
20:00 +26°C° 0.1 mm 1 mps 755 mmHg 89%
21:00 +26°C° 0 mm 1 mps 755 mmHg 88%
22:00 +26°C° 0 mm 1 mps 756 mmHg 87%
23:00 +26°C° 0 mm 1 mps 756 mmHg 86%

Mañana, 12 Julio, Domingo

Tiempo Temperatura Precipitaciones Viento Presión Humedad
00:00 +26°C° 0 mm 1 mps 756 mmHg 85%
01:00 +26°C° 0 mm 1 mps 755 mmHg 85%
02:00 +26°C° 0 mm 1 mps 755 mmHg 85%
03:00 +26°C° 0 mm 1 mps 754 mmHg 85%
04:00 +26°C° 0 mm 1 mps 754 mmHg 86%
05:00 +25°C° 0 mm 1 mps 754 mmHg 86%
06:00 +26°C° 0 mm 1 mps 754 mmHg 84%
07:00 +27°C° 0 mm 1 mps 754 mmHg 83%
08:00 +25°C° 0 mm 0 mps 755 mmHg 81%
09:00 +26°C° 0 mm 0 mps 755 mmHg 77%
10:00 +27°C° 0 mm 0 mps 755 mmHg 72%
11:00 +29°C° 0 mm 0 mps 755 mmHg 68%
12:00 +31°C° 0 mm 1 mps 754 mmHg 64%
13:00 +32°C° 0 mm 1 mps 754 mmHg 60%
14:00 +34°C° 0 mm 2 mps 753 mmHg 55%
15:00 +32°C° 0.1 mm 2 mps 753 mmHg 61%
16:00 +31°C° 0.1 mm 2 mps 752 mmHg 67%
17:00 +30°C° 0.1 mm 3 mps 752 mmHg 73%
18:00 +30°C° 0.3 mm 3 mps 753 mmHg 77%
19:00 +29°C° 0.3 mm 3 mps 753 mmHg 80%
20:00 +28°C° 0.3 mm 2 mps 754 mmHg 84%
21:00 +28°C° 0 mm 2 mps 754 mmHg 84%
22:00 +28°C° 0 mm 2 mps 755 mmHg 84%
23:00 +27°C° 0 mm 2 mps 755 mmHg 84%

Pasado mañana, 13 Julio, Lunes

Tiempo Temperatura Precipitaciones Viento Presión Humedad
00:00 +27°C° 0 mm 2 mps 755 mmHg 85%
01:00 +27°C° 0 mm 1 mps 755 mmHg 86%
02:00 +27°C° 0 mm 1 mps 754 mmHg 87%
03:00 +26°C° 0 mm 1 mps 754 mmHg 88%
04:00 +26°C° 0 mm 1 mps 754 mmHg 90%
05:00 +26°C° 0 mm 1 mps 753 mmHg 92%
06:00 +26°C° 0 mm 1 mps 754 mmHg 90%
07:00 +27°C° 0 mm 1 mps 754 mmHg 88%
08:00 +27°C° 0 mm 2 mps 755 mmHg 86%
09:00 +29°C° 0 mm 1 mps 755 mmHg 78%
10:00 +31°C° 0 mm 1 mps 755 mmHg 70%
11:00 +33°C° 0 mm 1 mps 755 mmHg 63%
12:00 +32°C° 0.6 mm 2 mps 754 mmHg 71%
13:00 +31°C° 0.6 mm 2 mps 754 mmHg 78%
14:00 +31°C° 0.6 mm 3 mps 753 mmHg 86%
15:00 +30°C° 2.2 mm 3 mps 753 mmHg 87%
16:00 +29°C° 2.2 mm 3 mps 753 mmHg 88%
17:00 +29°C° 2.2 mm 3 mps 753 mmHg 89%
18:00 +28°C° 3 mm 3 mps 753 mmHg 90%
19:00 +27°C° 3 mm 2 mps 754 mmHg 90%
20:00 +27°C° 3 mm 2 mps 754 mmHg 91%
21:00 +27°C° 0.6 mm 2 mps 755 mmHg 91%
22:00 +26°C° 0.6 mm 2 mps 755 mmHg 92%
23:00 +26°C° 0.6 mm 2 mps 756 mmHg 92%

14 Julio, Martes

Tiempo Temperatura Precipitaciones Viento Presión Humedad
00:00 +26°C° 0 mm 2 mps 755 mmHg 93%
01:00 +26°C° 0 mm 2 mps 755 mmHg 94%
02:00 +25°C° 0 mm 2 mps 755 mmHg 94%
03:00 +25°C° 0.2 mm 2 mps 755 mmHg 95%
04:00 +25°C° 0.2 mm 2 mps 754 mmHg 95%
05:00 +25°C° 0.2 mm 2 mps 754 mmHg 95%
06:00 +26°C° 0.2 mm 2 mps 755 mmHg 94%
07:00 +26°C° 0.2 mm 2 mps 755 mmHg 93%
08:00 +27°C° 0.2 mm 2 mps 756 mmHg 92%
09:00 +29°C° 0.1 mm 2 mps 756 mmHg 82%
10:00 +31°C° 0.1 mm 1 mps 756 mmHg 72%
11:00 +33°C° 0.1 mm 1 mps 755 mmHg 62%
12:00 +34°C° 0.5 mm 2 mps 755 mmHg 65%
13:00 +32°C° 0.5 mm 2 mps 754 mmHg 68%
14:00 +33°C° 0.5 mm 3 mps 753 mmHg 71%
15:00 +31°C° 0.8 mm 2 mps 753 mmHg 74%
16:00 +31°C° 0.8 mm 2 mps 753 mmHg 77%
17:00 +30°C° 0.8 mm 2 mps 753 mmHg 80%
18:00 +29°C° 0.3 mm 2 mps 753 mmHg 82%
19:00 +28°C° 0.3 mm 1 mps 754 mmHg 84%
20:00 +27°C° 0.3 mm 1 mps 754 mmHg 86%
21:00 +27°C° 0.3 mm 1 mps 755 mmHg 87%
22:00 +27°C° 0.3 mm 1 mps 755 mmHg 88%
23:00 +27°C° 0.3 mm 1 mps 756 mmHg 88%

15 Julio, Miércoles

Tiempo Temperatura Precipitaciones Viento Presión Humedad
00:00 +26°C° 0.2 mm 1 mps 755 mmHg 90%
01:00 +26°C° 0.2 mm 1 mps 755 mmHg 91%
02:00 +26°C° 0.2 mm 1 mps 754 mmHg 92%
03:00 +26°C° 0.3 mm 1 mps 754 mmHg 93%
04:00 +25°C° 0.3 mm 1 mps 754 mmHg 94%
05:00 +25°C° 0.3 mm 2 mps 754 mmHg 94%
06:00 +26°C° 0.1 mm 2 mps 754 mmHg 92%
07:00 +27°C° 0.1 mm 1 mps 755 mmHg 91%
08:00 +27°C° 0.1 mm 1 mps 755 mmHg 89%
09:00 +29°C° 0 mm 1 mps 755 mmHg 79%
10:00 +32°C° 0 mm 1 mps 755 mmHg 69%
11:00 +32°C° 0 mm 0 mps 755 mmHg 59%
12:00 +33°C° 0.4 mm 1 mps 754 mmHg 62%
13:00 +34°C° 0.4 mm 2 mps 753 mmHg 66%
14:00 +32°C° 0.4 mm 2 mps 752 mmHg 69%
15:00 +32°C° 0 mm 2 mps 752 mmHg 70%
16:00 +31°C° 0 mm 2 mps 752 mmHg 70%
17:00 +31°C° 0 mm 2 mps 751 mmHg 71%
18:00 +30°C° 0 mm 2 mps 752 mmHg 75%
19:00 +29°C° 0 mm 1 mps 753 mmHg 79%
20:00 +28°C° 0 mm 1 mps 753 mmHg 84%
21:00 +28°C° 0 mm 1 mps 753 mmHg 84%
22:00 +27°C° 0 mm 1 mps 754 mmHg 85%
23:00 +27°C° 0 mm 1 mps 754 mmHg 86%

16 Julio, Jueves

Tiempo Temperatura Precipitaciones Viento Presión Humedad
00:00 +27°C° 0.1 mm 1 mps 754 mmHg 87%
01:00 +27°C° 0.1 mm 1 mps 753 mmHg 89%
02:00 +26°C° 0.1 mm 1 mps 753 mmHg 91%
03:00 +26°C° 0.2 mm 1 mps 753 mmHg 92%
04:00 +26°C° 0.2 mm 1 mps 753 mmHg 93%
05:00 +26°C° 0.2 mm 1 mps 753 mmHg 94%
06:00 +26°C° 0 mm 1 mps 753 mmHg 91%
07:00 +27°C° 0 mm 1 mps 754 mmHg 89%
08:00 +28°C° 0 mm 1 mps 754 mmHg 86%
09:00 +30°C° 0 mm 1 mps 754 mmHg 78%
10:00 +32°C° 0 mm 1 mps 754 mmHg 70%
11:00 +32°C° 0 mm 0 mps 754 mmHg 61%
12:00 +33°C° 0.3 mm 1 mps 753 mmHg 65%
13:00 +34°C° 0.3 mm 2 mps 753 mmHg 69%
14:00 +33°C° 0.3 mm 3 mps 752 mmHg 73%
15:00 +31°C° 1.3 mm 3 mps 752 mmHg 77%
16:00 +31°C° 1.3 mm 3 mps 752 mmHg 82%
17:00 +30°C° 1.3 mm 3 mps 751 mmHg 86%
18:00 +29°C° 1.9 mm 2 mps 752 mmHg 87%
19:00 +28°C° 1.9 mm 2 mps 753 mmHg 89%
20:00 +28°C° 1.9 mm 1 mps 753 mmHg 91%
21:00 +27°C° 0.2 mm 1 mps 753 mmHg 91%
22:00 +27°C° 0.2 mm 1 mps 754 mmHg 90%
23:00 +27°C° 0.2 mm 1 mps 754 mmHg 90%
Mostrar más